Temperature
14 14 14 15 15 15 15 15 15 15 15 15 14 14 14 15 14 14 14 14 14 14 14 14 13 13 13 13 13 13 12 12 12 12 12 11 11 11 11 11 11 10 10
14 14 14 14 15 15 15 15 15 15 14 14 14 14 14 14 14 14 14 14 14 14 14 13 13 13 13 13 13 13 12 12 12 12 11 11 11 11 10 10 10 10 10
14 14 14 14 14 14 14 14 14 14 14 14 14 14 14 14 14 14 14 14 14 14 13 13 13 13 13 13 13 12 12 12 12 12 11 11 11 10 10 10 10 10 10
14 14 14 14 14 14 14 14 14 14 14 14 14 14 14 14 14 14 14 14 14 13 13 13 13 13 13 13 13 12 12 12 12 11 11 11 11 10 10 10 10 10 10
13 14 14 14 14 14 14 14 14 14 14 14 13 13 14 14 14 14 14 14 13 13 13 13 13 13 13 13 12 12 12 12 12 11 11 11 11 10 10 10 10 10 10
13 13 14 14 14 14 14 14 14 14 14 13 13 13 13 13 13 13 13 13 13 13 13 13 13 13 13 12 12 12 12 12 11 11 11 11 10 10 10 10 10 10 9
13 13 13 13 13 13 13 13 13 13 13 13 13 12 13 13 13 13 13 13 13 13 13 13 13 13 12 12 12 12 12 12 11 11 11 11 10 10 10 10 9 9 9
12 13 13 13 13 13 13 13 13 13 13 13 12 12 11 12 12 13 13 13 13 13 13 13 13 12 12 12 12 12 12 11 11 11 11 10 10 10 10 9 9 9 9
12 12 13 13 13 13 13 13 13 13 13 12 12 12 11 12 12 12 12 13 13 13 13 13 12 12 12 12 12 12 11 11 11 10 10 10 10 10 9 9 9 9 9
12 12 12 12 12 12 13 13 13 12 12 12 12 12 12 12 12 12 12 12 12 12 12 12 12 12 12 12 12 11 11 11 11 10 10 10 10 9 9 9 9 9 8
11 12 12 12 12 12 12 13 12 12 12 12 12 12 12 12 12 12 12 12 12 12 12 12 12 12 12 11 11 11 11 11 10 10 10 10 9 9 9 9 8 8 8
11 11 11 11 12 12 12 12 12 12 12 12 12 12 12 12 12 12 12 12 12 12 12 12 12 11 11 11 11 11 10 10 10 10 10 9 9 9 8 8 8 8 8
11 11 11 11 11 11 12 12 12 12 12 11 11 11 12 12 12 12 12 12 11 11 11 11 11 11 11 11 10 10 10 10 10 9 9 9 9 9 8 8 8 8 7
10 10 10 11 11 11 11 11 11 11 11 11 11 11 11 11 11 11 11 11 11 11 11 11 11 11 11 10 10 10 10 9 9 9 9 9 8 8 8 8 8 7 7
10 10 10 10 10 10 11 11 10 11 11 10 10 10 11 11 11 11 11 11 11 10 10 11 11 11 10 10 10 9 9 9 9 9 8 8 8 8 8 8 7 7 7
9 9 9 10 10 10 10 10 10 10 10 10 10 10 10 10 10 10 10 10 10 10 10 10 10 10 10 9 9 9 9 8 8 8 8 8 8 7 7 7 7 6 6
9 9 9 9 9 9 9 9 9 9 9 9 9 10 10 10 10 10 10 10 10 10 10 10 10 10 9 9 9 8 8 8 8 7 7 7 7 7 6 6 6 6 6
8 8 8 9 9 9 9 9 9 9 9 9 9 9 9 9 9 10 10 9 9 9 9 9 9 9 9 8 8 8 7 7 7 7 7 7 6 6 6 6 5 5 5
8 8 8 8 8 8 8 8 8 8 9 9 9 9 9 9 9 9 9 9 9 9 9 9 9 9 8 8 7 7 7 7 6 6 6 6 6 5 5 5 5 5 5
7 7 7 8 8 8 8 8 8 8 8 8 8 8 8 8 9 9 9 9 9 8 8 8 8 8 8 7 7 7 6 6 6 6 6 5 5 5 5 5 4 4 4
6 6 7 7 7 7 7 7 7 7 8 8 8 8 8 8 8 8 8 8 8 8 8 8 8 7 7 7 7 6 6 6 5 5 5 5 5 4 4 4 4 4 4
6 6 6 6 6 6 7 7 7 7 7 7 7 7 7 7 8 8 8 8 8 7 7 7 7 7 7 7 6 6 6 5 5 5 5 4 4 4 4 4 3 3 3
5 5 5 5 5 6 6 6 6 6 7 7 7 7 7 7 7 7 7 7 7 7 7 7 7 7 7 7 6 6 6 6 5 5 4 4 4 4 3 3 3 3 3
4 4 5 5 5 5 5 6 6 6 6 6 6 6 6 6 6 6 6 6 6 6 6 6 6 6 6 6 6 6 6 5 4 4 4 4 3 3 3 3 2 2 2
4 4 4 4 4 4 5 5 5 5 5 5 6 6 6 5 6 6 6 6 6 6 6 6 6 6 6 5 5 5 5 4 4 4 3 3 3 3 2 2 2 2 2
3 3 3 4 4 4 4 4 4 5 5 5 5 5 5 5 5 5 5 5 5 5 5 5 5 5 5 5 5 4 4 4 3 3 3 3 2 2 2 2 2 1 1
Wind_Speed
9 8 8 10 10 11 10 8 8 8 7 7 8 8 7 8 8 7 7 7 8 8 7 7 6 6 5 4 4 3 3 3 2 1 1 1 1 2 3 4 5 5 6
9 9 8 8 9 11 11 10 9 7 6 6 5 7 7 8 8 8 7 8 8 8 7 7 6 5 5 4 3 3 3 3 2 2 2 2 2 2 2 3 4 5 6
12 9 8 8 9 12 11 9 7 6 5 4 4 5 6 7 7 8 8 8 8 8 8 7 6 5 4 4 4 3 4 3 3 2 2 2 2 3 3 4 4 5 6
14 10 8 8 10 11 9 7 6 5 5 5 4 4 4 5 6 8 8 8 8 7 7 8 7 6 5 5 4 4 4 3 4 4 4 4 3 3 3 3 4 4 5
14 11 8 8 10 8 7 8 6 5 5 5 4 3 3 3 4 6 6 8 8 8 8 8 8 7 6 5 5 4 4 4 4 4 4 4 4 3 4 3 4 4 6
13 11 8 9 9 8 7 7 7 5 5 5 4 2 2 3 3 4 5 6 8 8 8 8 7 7 7 6 5 5 5 4 4 4 4 5 4 4 4 4 4 5 5
12 10 8 9 9 9 9 9 6 6 4 4 3 1 0 1 3 3 3 4 5 7 8 8 8 7 6 6 6 5 5 5 5 4 4 5 5 4 5 5 5 5 5
12 11 10 9 9 8 9 9 7 5 4 6 4 3 2 2 2 3 3 4 4 6 6 7 8 8 7 5 4 5 5 5 6 5 5 5 5 4 4 3 3 4 5
11 11 11 10 10 9 10 10 10 9 6 6 5 4 4 5 2 2 3 4 4 4 4 6 7 7 7 6 5 5 5 6 6 6 6 6 5 5 4 3 3 4 5
10 10 11 11 11 9 9 10 10 8 9 8 5 3 3 3 3 3 2 3 4 4 4 4 6 7 7 7 6 6 6 6 6 6 6 5 5 4 3 2 3 4 5
8 9 9 10 11 10 10 10 10 9 8 8 6 4 2 1 2 3 4 3 3 4 5 4 5 6 7 8 7 6 7 6 6 6 5 4 3 2 2 1 2 3 4
6 8 8 9 10 9 10 11 11 11 9 9 7 6 5 4 4 4 3 4 4 3 3 4 5 6 7 8 8 8 6 6 5 5 4 3 1 1 1 1 2 3 4
5 8 8 8 9 9 9 9 10 11 10 10 10 8 6 5 4 4 3 3 3 2 2 4 5 7 8 8 8 8 7 5 5 5 4 3 2 0 0 1 1 2 4
6 7 8 8 8 9 9 9 8 9 10 11 11 9 6 6 5 4 4 4 3 3 4 5 3 6 7 8 8 9 7 7 5 5 4 3 2 2 2 1 1 2 3
5 7 8 8 8 9 9 9 8 9 9 10 10 10 8 6 6 5 5 5 6 6 8 6 4 4 7 8 9 8 7 7 7 6 5 4 3 2 3 3 2 2 3
5 7 7 8 8 9 10 10 9 9 10 9 8 10 9 7 7 6 6 6 5 6 6 4 3 3 5 6 9 9 8 8 8 7 6 5 4 4 4 4 3 3 3
5 6 7 8 8 8 9 10 10 10 11 10 9 10 11 9 8 7 6 6 6 4 5 2 1 2 4 6 6 7 7 7 7 8 7 6 6 5 5 4 3 2 2
4 5 6 7 7 7 8 10 10 10 11 11 11 10 10 8 9 8 8 8 7 5 4 5 3 3 4 6 5 5 5 6 6 7 8 7 7 6 6 4 3 3 3
3 3 3 5 6 7 7 9 10 10 11 11 11 11 11 10 10 7 8 8 7 5 4 5 4 2 2 4 4 3 3 3 4 6 8 8 7 7 6 5 4 3 3
2 2 2 3 4 5 6 7 8 9 9 9 9 10 10 11 11 10 8 9 7 7 5 5 4 3 3 3 4 4 4 3 2 3 5 6 6 6 6 5 4 3 3
2 2 2 2 3 4 5 6 6 7 8 8 8 9 9 10 11 10 8 8 9 7 6 5 5 4 4 5 6 5 4 3 2 2 2 3 3 3 4 4 4 3 3
3 3 3 3 4 3 5 6 6 6 7 8 8 8 7 8 10 10 11 11 12 11 10 7 6 7 7 6 5 5 5 4 3 3 4 3 3 3 3 3 4 4 3
4 4 4 4 4 4 5 5 6 5 5 7 7 6 5 6 8 7 8 9 11 13 12 10 9 9 9 9 10 8 6 5 4 5 4 3 2 2 3 4 4 4 4
4 4 4 4 4 5 6 5 4 4 4 5 6 6 6 6 7 7 7 5 5 6 8 7 8 8 7 9 10 9 7 5 4 2 4 3 3 2 2 2 3 3 4
5 5 4 5 5 5 6 4 3 3 3 3 4 4 5 6 7 8 7 6 4 2 3 6 6 7 9 12 12 8 8 6 3 3 3 3 3 2 1 1 1 2 4
4 4 5 4 4 5 6 5 3 1 2 2 2 3 5 5 7 8 7 7 7 4 4 5 6 7 8 10 12 8 9 7 4 3 4 4 3 3 2 1 1 1 2
Wind_Direction
169 167 169 171 172 170 166 162 158 157 157 160 165 166 170 177 183 188 194 190 185 183 183 182 183 184 190 189 180 175 173 167 161 162 157 104 28 14 11 11 7 4 0
172 173 174 176 179 178 176 172 167 163 163 164 171 176 181 186 191 194 195 191 190 191 193 198 200 202 202 196 192 185 187 198 204 221 237 244 272 307 335 339 346 349 349
176 177 179 182 184 182 176 169 163 158 160 169 181 182 184 190 192 196 196 195 197 201 205 210 212 210 211 210 213 217 215 215 224 237 255 259 271 286 298 311 323 333 339
181 179 183 186 183 179 176 173 171 169 173 176 183 189 184 189 195 200 200 201 202 205 210 214 214 213 212 214 221 227 224 227 236 241 255 266 276 282 296 306 319 322 325
184 183 185 185 181 179 179 182 177 170 173 179 184 188 191 196 197 199 201 205 207 208 210 212 212 212 213 219 222 227 233 240 241 246 256 268 272 277 285 293 307 316 321
185 184 183 182 181 182 183 183 179 172 173 168 164 169 198 209 196 201 205 205 208 209 208 205 204 212 218 219 230 242 249 256 252 252 262 268 266 274 285 289 293 300 308
188 185 183 182 184 189 188 182 179 173 174 151 131 135 340 221 214 218 204 199 204 206 203 202 202 205 210 217 228 241 253 258 265 264 272 270 265 277 287 288 295 301 306
191 191 187 187 188 189 187 186 176 176 179 171 153 147 182 241 238 221 209 209 208 196 197 202 201 200 201 204 218 233 245 256 264 269 274 272 272 284 292 302 319 330 325
193 192 192 190 190 190 195 193 188 183 187 194 182 167 174 207 212 224 220 217 207 205 203 194 200 203 203 202 212 225 234 246 258 265 271 273 269 275 281 293 316 329 332
197 196 195 196 194 195 196 197 196 195 184 191 200 205 193 164 174 200 226 220 215 217 214 202 199 204 204 201 210 218 221 229 244 256 261 269 274 273 274 292 314 326 330
200 200 199 200 199 200 200 197 195 199 197 195 192 185 187 189 182 186 219 213 217 222 219 211 199 200 202 200 203 211 217 223 236 250 254 262 278 259 262 279 316 333 344
200 203 203 204 205 204 203 201 199 200 205 202 199 192 189 189 195 194 212 222 225 223 218 213 204 199 198 196 200 204 207 216 227 237 243 239 257 271 259 262 316 337 349
210 208 209 210 211 211 208 204 202 202 204 205 205 207 204 203 189 190 195 214 231 234 212 218 211 198 198 193 196 199 198 198 209 220 223 214 200 184 162 243 314 353 360
214 211 211 212 212 211 211 205 208 207 205 209 211 208 211 208 197 195 191 185 216 234 227 225 205 198 194 192 197 193 191 190 190 197 197 186 176 149 138 123 47 22 15
218 215 214 213 213 210 209 207 213 209 207 210 213 213 216 211 205 202 193 190 193 223 233 218 204 195 188 185 188 184 186 188 184 176 162 148 135 129 127 116 92 52 34
218 215 218 214 213 211 207 208 213 211 208 212 214 216 220 218 208 204 202 204 205 212 229 211 202 185 183 181 185 182 186 186 183 178 170 160 148 138 126 113 86 55 39
220 218 218 218 217 215 209 209 211 210 212 215 216 219 222 216 213 209 205 202 206 203 221 230 196 170 179 180 176 178 183 177 182 185 179 172 162 152 146 129 108 78 51
231 223 217 218 219 220 217 212 213 213 214 215 218 221 224 217 216 211 206 207 208 200 203 215 212 190 193 183 176 176 180 179 181 188 182 173 167 160 149 133 128 107 76
265 247 229 222 221 221 222 219 216 216 216 218 217 218 219 213 218 218 213 209 205 199 194 195 201 196 181 169 168 174 180 178 172 180 177 174 170 166 158 150 134 109 84
286 286 270 264 238 230 231 226 219 218 217 218 217 216 216 213 213 212 214 210 200 194 188 182 186 184 173 164 168 179 190 190 180 156 164 165 166 163 162 160 142 124 102
321 299 288 286 264 234 233 235 225 222 217 216 216 217 217 214 212 209 212 207 197 198 191 190 191 189 185 179 193 182 187 169 174 166 156 157 159 161 163 161 151 140 123
343 334 316 293 287 274 257 244 232 221 219 218 220 221 218 212 212 210 210 206 200 196 196 196 201 199 197 193 180 178 166 168 196 186 162 169 159 170 176 179 171 161 147
352 346 342 333 311 301 292 265 242 225 220 219 219 218 222 220 208 206 206 203 207 206 198 195 198 203 196 191 180 180 180 178 181 167 154 169 160 174 188 192 182 174 163
347 343 335 333 323 316 316 298 255 224 222 224 221 217 216 216 210 198 191 194 205 206 202 198 197 196 193 184 183 178 166 136 100 129 147 159 165 170 157 184 174 168 169
343 337 334 338 334 329 325 316 275 218 216 229 229 220 213 215 208 187 176 181 184 192 175 163 163 164 166 166 161 147 149 154 159 173 159 147 151 137 125 143 177 157 163
334 334 336 336 336 327 333 343 336 232 220 234 231 222 215 211 201 188 182 180 184 180 152 141 134 132 142 154 161 166 165 163 153 169 171 149 146 137 131 107 119 146 150
Height
1516 1520 1524 1527 1530 1533 1536 1539 1542 1545 1547 1549 1552 1553 1555 1557 1558 1559 1560 1561 1561 1562 1562 1563 1563 1563 1563 1563 1562 1562 1562 1561 1561 1560 1559 1559 1558 1557 1556 1555 1554 1553 1552
1513 1517 1520 1524 1527 1531 1534 1537 1540 1542 1545 1548 1550 1552 1554 1555 1556 1558 1559 1560 1560 1561 1561 1562 1562 1562 1562 1562 1561 1561 1561 1560 1560 1559 1559 1558 1557 1556 1555 1554 1553 1552 1551
1510 1513 1517 1521 1524 1528 1531 1534 1537 1540 1543 1545 1548 1550 1552 1553 1554 1556 1557 1558 1558 1559 1560 1560 1560 1560 1560 1560 1560 1560 1559 1559 1558 1558 1557 1556 1555 1555 1554 1553 1552 1551 1549
1506 1510 1513 1517 1521 1525 1528 1531 1534 1537 1539 1542 1545 1547 1549 1551 1552 1553 1554 1555 1556 1557 1557 1558 1558 1558 1558 1558 1558 1558 1557 1557 1556 1556 1555 1554 1554 1553 1552 1551 1550 1549 1548
1502 1505 1509 1513 1517 1521 1524 1527 1530 1533 1536 1539 1542 1544 1546 1547 1549 1550 1552 1552 1553 1554 1555 1555 1556 1556 1556 1556 1556 1556 1555 1555 1554 1553 1553 1552 1551 1550 1550 1549 1548 1547 1546
1497 1501 1505 1509 1513 1516 1520 1523 1526 1530 1533 1536 1538 1540 1542 1544 1546 1547 1548 1549 1550 1551 1552 1552 1553 1553 1553 1553 1553 1553 1552 1552 1551 1551 1550 1549 1549 1548 1547 1546 1545 1544 1543
1492 1496 1500 1504 1508 1511 1515 1519 1522 1525 1528 1532 1534 1536 1538 1540 1542 1543 1544 1545 1546 1547 1548 1549 1549 1550 1550 1550 1550 1550 1549 1549 1548 1548 1547 1546 1546 1545 1544 1543 1542 1541 1540
1487 1491 1495 1499 1502 1507 1510 1514 1517 1520 1523 1526 1529 1532 1534 1536 1536 1538 1539 1541 1542 1543 1544 1545 1545 1546 1546 1546 1546 1546 1546 1546 1545 1544 1544 1543 1543 1542 1541 1540 1540 1539 1538
1482 1486 1490 1493 1497 1501 1504 1508 1511 1514 1517 1521 1524 1527 1529 1529 1531 1532 1534 1536 1537 1539 1540 1540 1541 1542 1542 1542 1542 1542 1542 1542 1542 1541 1540 1540 1539 1539 1538 1537 1537 1536 1535
1477 1480 1484 1488 1491 1495 1499 1502 1506 1509 1512 1515 1519 1521 1524 1524 1526 1526 1528 1530 1532 1533 1534 1535 1536 1537 1538 1538 1538 1538 1538 1538 1538 1537 1537 1536 1536 1535 1535 1534 1533 1532 1531
1471 1475 1479 1482 1485 1489 1493 1496 1499 1503 1506 1508 1511 1514 1517 1519 1520 1521 1522 1524 1526 1528 1529 1530 1531 1532 1533 1533 1533 1534 1534 1533 1533 1533 1533 1533 1532 1532 1531 1530 1530 1529 1528
1465 1469 1473 1476 1480 1483 1486 1490 1493 1496 1499 1502 1505 1508 1510 1512 1514 1516 1517 1518 1519 1521 1523 1524 1525 1526 1527 1528 1528 1529 1529 1529 1529 1529 1529 1528 1528 1528 1527 1527 1526 1525 1525
1459 1463 1467 1470 1473 1476 1480 1483 1486 1489 1493 1496 1498 1501 1504 1507 1509 1511 1512 1513 1514 1515 1517 1518 1519 1521 1522 1523 1523 1524 1524 1524 1524 1524 1524 1524 1523 1523 1523 1523 1522 1522 1521
1454 1458 1461 1464 1467 1470 1473 1476 1480 1482 1486 1489 1492 1495 1497 1500 1503 1504 1506 1508 1508 1509 1510 1511 1512 1514 1515 1517 1518 1519 1519 1519 1520 1520 1519 1519 1519 1519 1519 1519 1518 1518 1517
1449 1452 1455 1458 1461 1464 1467 1469 1473 1475 1478 1482 1485 1488 1490 1492 1495 1498 1500 1502 1504 1503 1503 1505 1506 1507 1509 1510 1512 1513 1514 1514 1515 1515 1515 1515 1515 1515 1514 1514 1515 1514 1514
1444 1446 1449 1451 1454 1457 1460 1463 1465 1468 1471 1474 1478 1481 1483 1485 1488 1490 1492 1494 1496 1498 1497 1498 1499 1501 1503 1504 1505 1507 1508 1509 1509 1510 1510 1510 1510 1510 1510 1510 1511 1511 1510
1438 1441 1443 1445 1447 1450 1453 1455 1458 1461 1464 1467 1470 1473 1475 1478 1480 1482 1484 1486 1488 1490 1491 1491 1493 1495 1496 1498 1499 1501 1502 1502 1504 1505 1505 1505 1506 1506 1506 1507 1507 1507 1507
1434 1435 1437 1439 1441 1443 1446 1448 1450 1454 1456 1459 1462 1465 1467 1470 1472 1474 1476 1478 1480 1482 1484 1484 1485 1487 1489 1491 1493 1495 1496 1497 1498 1499 1500 1500 1501 1502 1502 1503 1503 1503 1504
1429 1430 1432 1433 1435 1437 1439 1442 1444 1446 1449 1451 1454 1457 1459 1462 1463 1466 1468 1470 1472 1474 1476 1477 1478 1480 1482 1484 1486 1488 1490 1491 1492 1493 1495 1495 1496 1497 1498 1499 1499 1500 1500
1426 1426 1427 1428 1430 1432 1434 1436 1437 1439 1441 1444 1446 1449 1451 1453 1455 1458 1459 1461 1464 1466 1468 1469 1471 1473 1475 1477 1480 1482 1483 1485 1486 1488 1489 1491 1492 1493 1494 1495 1495 1496 1497
1423 1423 1424 1425 1426 1427 1428 1429 1431 1432 1434 1436 1438 1441 1443 1445 1447 1450 1452 1453 1455 1457 1459 1461 1464 1466 1467 1470 1472 1475 1477 1479 1481 1483 1484 1485 1487 1488 1489 1490 1491 1492 1493
1420 1421 1421 1421 1421 1422 1423 1424 1425 1426 1427 1429 1431 1433 1435 1437 1439 1441 1443 1445 1447 1449 1451 1453 1456 1458 1460 1463 1465 1468 1470 1473 1475 1478 1479 1480 1482 1483 1485 1486 1487 1489 1490
1418 1418 1418 1418 1418 1418 1418 1419 1420 1421 1421 1423 1425 1426 1428 1429 1432 1433 1435 1437 1439 1441 1444 1446 1448 1450 1453 1456 1458 1461 1463 1466 1468 1471 1473 1474 1477 1479 1481 1482 1484 1485 1486
1415 1415 1415 1414 1414 1413 1413 1414 1414 1415 1416 1417 1418 1420 1421 1423 1425 1427 1428 1430 1431 1433 1436 1439 1441 1444 1447 1450 1452 1455 1457 1460 1463 1465 1467 1470 1472 1474 1476 1478 1480 1481 1483
1414 1413 1412 1411 1410 1409 1409 1408 1409 1409 1410 1411 1412 1414 1415 1416 1418 1420 1422 1423 1425 1427 1430 1432 1435 1438 1441 1443 1446 1449 1451 1454 1456 1460 1462 1465 1467 1470 1472 1474 1476 1478 1479
1412 1410 1409 1408 1407 1406 1405 1405 1405 1405 1405 1406 1407 1408 1409 1411 1412 1414 1416 1417 1419 1420 1422 1425 1428 1432 1435 1438 1440 1443 1446 1449 1451 1453 1456 1459 1462 1465 1468 1470 1472 1474 1476